Bloomington, IL

1:43 PM CST on February 06, 2016 (GMT -0600)
Central Ill Regional

Weather History for KBMI - May, 2013

Change the Weather History Date:

Thursday, May 9, 2013

  Actual Average Record
Temperature  
Mean Temperature 62 °F -  
Max Temperature 66 °F 70 °F 86 °F (2003)
Min Temperature 59 °F 56 °F 43 °F (2008)
Degree Days  
Heating Degree Days 3    
Growing Degree Days 12 (Base 50)    
Moisture  
Dew Point 60 °F    
Average Humidity 90    
Maximum Humidity 100    
Minimum Humidity 65    
Precipitation  
Precipitation 0.54 in - - ()
Sea Level Pressure  
Sea Level Pressure 29.91 in    
Wind  
Wind Speed 9 mph (South)    
Max Wind Speed 20 mph    
Max Gust Speed -    
Visibility 8 miles    
Events Rain    
Averages and records for this station are not official NWS values.
T = Trace of Precipitation, MM = Missing Value Source: NWS Daily Summary

Daily Weather History Graph

Daily Weather History Graph

Search for Another Location

Airport or City:

Trip Planner

Search our weather history database for the weather conditions in past years. The results will help you decide how hot, cold, wet, or windy it might be!

Date:

Astronomy

May. 09, 2013 Rise Set
Actual Time 5:45 AM CDT 7:59 PM CDT
Civil Twilight 5:14 AM CDT 8:30 PM CDT
Nautical Twilight 4:37 AM CDT 9:07 PM CDT
Astronomical Twilight 3:56 AM CDT 9:49 PM CDT
Moon 5:29 AM CDT (5/9) 7:54 PM CDT (5/9)
Length of Visible Light 15h 15m
Length of Day
14h 14m
Waning Crescent, 0% of the Moon is Illuminated
May 9
Waning Crescent
May 9
New
May 17
First Quarter
May 24
Full
May 31
Last Quarter

Hourly Weather History & Observations

Time (CDT) Temp. Dew Point Humidity Pressure Visibility Wind Dir Wind Speed Gust Speed Precip Events Conditions
1:56 AM 65.8 °F 54.0 °F 65% 29.94 in 10.0 mi West 5.8 mph - N/A   Partly Cloudy
2:56 AM 64.9 °F 54.0 °F 68% 29.95 in 10.0 mi SSW 3.5 mph - N/A   Scattered Clouds
3:56 AM 61.9 °F 54.9 °F 78% 29.95 in 10.0 mi SW 4.6 mph - N/A   Mostly Cloudy
4:56 AM 59.9 °F 55.9 °F 87% 29.94 in 10.0 mi SSW 6.9 mph - N/A   Scattered Clouds
5:56 AM 59.9 °F 55.9 °F 87% 29.95 in 10.0 mi South 5.8 mph - N/A   Mostly Cloudy
6:56 AM 59.9 °F 56.8 °F 90% 29.96 in 10.0 mi South 5.8 mph - N/A   Partly Cloudy
7:56 AM 63.0 °F 57.9 °F 84% 29.96 in 10.0 mi SSW 5.8 mph - N/A   Overcast
8:56 AM 61.9 °F 57.9 °F 87% 29.99 in 8.0 mi WSW 10.4 mph - 0.00 in Rain Light Rain
9:56 AM 61.0 °F 59.0 °F 93% 30.00 in 4.0 mi SW 12.7 mph - 0.08 in Rain Light Rain
10:56 AM 63.0 °F 61.0 °F 93% 29.95 in 10.0 mi ESE 11.5 mph - 0.05 in Rain Light Rain
11:56 AM 64.9 °F 61.0 °F 87% 29.94 in 10.0 mi South 13.8 mph - 0.00 in   Mostly Cloudy
12:41 PM 64.4 °F 60.8 °F 88% 29.97 in 10.0 mi South 19.6 mph - 0.00 in Rain Light Rain
12:56 PM 63.9 °F 61.0 °F 90% 29.96 in 6.0 mi SSW 13.8 mph - 0.01 in Rain Light Rain
1:56 PM 63.0 °F 59.9 °F 90% 29.95 in 3.0 mi SSW 17.3 mph - 0.11 in Rain Light Rain
2:27 PM 62.6 °F 60.8 °F 94% 29.96 in 2.0 mi South 15.0 mph - 0.07 in Rain Light Rain
2:56 PM 61.9 °F 61.0 °F 97% 29.93 in 2.0 mi South 11.5 mph - 0.21 in Rain Rain
3:40 PM 62.6 °F 62.6 °F 100% 29.91 in 5.0 mi SE 11.5 mph - 0.06 in Rain Light Rain
3:56 PM 63.9 °F 61.9 °F 93% 29.88 in 8.0 mi SE 11.5 mph - 0.07 in Rain Light Rain
4:56 PM 64.9 °F 61.9 °F 90% 29.86 in 10.0 mi SE 10.4 mph - 0.00 in   Overcast
4:57 PM 64.4 °F 62.6 °F 94% 29.88 in 10.0 mi SE 10.4 mph - N/A   Overcast
5:25 PM 64.4 °F 62.6 °F 94% 29.87 in 10.0 mi SSE 11.5 mph - N/A   Mostly Cloudy
5:56 PM 63.9 °F 61.9 °F 93% 29.85 in 10.0 mi SE 6.9 mph - 0.00 in Rain Light Rain
6:56 PM 63.9 °F 61.0 °F 90% 29.83 in 10.0 mi SSE 12.7 mph - 0.00 in   Mostly Cloudy
7:56 PM 63.0 °F 61.0 °F 93% 29.84 in 10.0 mi South 11.5 mph - 0.01 in Rain Light Rain
8:56 PM 63.0 °F 61.9 °F 96% 29.85 in 10.0 mi South 10.4 mph - 0.00 in   Overcast
9:29 PM 62.6 °F 60.8 °F 94% 29.86 in 8.0 mi SSW 9.2 mph - N/A   Partly Cloudy
9:47 PM 60.8 °F 60.8 °F 100% 29.85 in 6.0 mi South 8.1 mph - N/A   Partly Cloudy
9:56 PM 61.0 °F 61.0 °F 100% 29.84 in 5.0 mi SW 6.9 mph - N/A   Partly Cloudy
10:56 PM 63.0 °F 61.0 °F 93% 29.84 in 10.0 mi WSW 11.5 mph - N/A   Clear
11:56 PM 61.0 °F 59.0 °F 93% 29.83 in 10.0 mi SW 10.4 mph - N/A   Clear